^^
Your Local Weather - Clay, NY Station Historical Data
Daily Summary for May 6, 2017 Units:  Metric    English   Both
« Previous Day
Next Day »
Daily Weekly Monthly Yearly Custom
  High: Low: Average:
Temperature: 12.7 °C 7.1 °C 10 °C
Dew Point: 11.7 °C 5.7 °C 8.7 °C
Humidity: 94% 88% 92%
Wind Speed: 9.7km/h 0km/h 3.1km/h
Wind Gust: 17.7km/h - -
Wind- - South
Pressure: 995.1 hPa 989.7 hPa -
Precipitation: 16.26 mm    
Historical Graphs
 
 
Tabular Data for May 6, 2017
Time Temperature Dew Point Pressure Wind Wind Speed Wind Gust Humidity Rainfall Rate (Hourly) solar
00:02 11.2 °C 9.4 °C 994.8 hPa ENE 6.4 km/h 8 km/h 89% 0 mm 0 W/m2
00:08 11.2 °C 9.4 °C 994.5 hPa ENE 4.8 km/h 8 km/h 89% 0 mm 0 W/m2
00:14 11.2 °C 9.3 °C 994.5 hPa ENE 6.4 km/h 14.5 km/h 88% 0 mm 0 W/m2
00:20 11.2 °C 9.3 °C 994.5 hPa East 6.4 km/h 8 km/h 88% 0 mm 0 W/m2
00:26 11.2 °C 9.3 °C 994.5 hPa ENE 8 km/h 17.7 km/h 88% 0 mm 0 W/m2
00:32 11.2 °C 9.3 °C 994.5 hPa ESE 6.4 km/h 8 km/h 88% 0 mm 0 W/m2
00:38 11.2 °C 9.3 °C 994.5 hPa ENE 4.8 km/h 8 km/h 88% 0 mm 0 W/m2
00:44 11.2 °C 9.3 °C 994.1 hPa NE 4.8 km/h 11.3 km/h 88% 0 mm 0 W/m2
00:50 11.2 °C 9.3 °C 994.1 hPa ENE 6.4 km/h 6.4 km/h 88% 0 mm 0 W/m2
00:56 11.3 °C 9.4 °C 993.8 hPa East 8 km/h 9.7 km/h 88% 0 mm 0 W/m2
01:02 11.3 °C 9.4 °C 993.8 hPa East 9.7 km/h 14.5 km/h 88% 0 mm 0 W/m2
01:08 11.3 °C 9.4 °C 993.8 hPa NE 9.7 km/h 14.5 km/h 88% 0 mm 0 W/m2
01:14 11.4 °C 9.4 °C 993.8 hPa ENE 8 km/h 9.7 km/h 88% 0 mm 0 W/m2
01:20 11.3 °C 9.4 °C 993.5 hPa WSW 8 km/h 8 km/h 88% 0 mm 0 W/m2
01:26 11.3 °C 9.4 °C 993.8 hPa ENE 9.7 km/h 16.1 km/h 88% 0 mm 0 W/m2
01:32 11.3 °C 9.4 °C 993.5 hPa ENE 9.7 km/h 11.3 km/h 88% 0 mm 0 W/m2
01:38 11.1 °C 9.4 °C 993.1 hPa SE 9.7 km/h 11.3 km/h 89% 0 mm 0 W/m2
01:44 11 °C 9.3 °C 993.5 hPa ENE 6.4 km/h 8 km/h 89% 0 mm 0 W/m2
01:50 11 °C 9.4 °C 993.1 hPa ENE 6.4 km/h 11.3 km/h 90% 0 mm 0 W/m2
01:56 11 °C 9.4 °C 993.1 hPa ENE 6.4 km/h 12.9 km/h 90% 0 mm 0 W/m2
02:02 11 °C 9.4 °C 993.1 hPa East 4.8 km/h 4.8 km/h 90% 0 mm 0 W/m2
02:08 11.1 °C 9.5 °C 992.8 hPa ENE 4.8 km/h 4.8 km/h 90% 0 mm 0 W/m2
02:14 11.3 °C 9.7 °C 992.8 hPa East 4.8 km/h 8 km/h 90% 0 mm 0 W/m2
02:20 11.4 °C 9.8 °C 992.8 hPa ENE 3.2 km/h 3.2 km/h 90% 0 mm 0 W/m2
02:26 11.5 °C 9.9 °C 992.8 hPa East 4.8 km/h 4.8 km/h 90% 0 mm 0 W/m2
02:32 11.5 °C 9.9 °C 992.8 hPa East 4.8 km/h 6.4 km/h 90% 0 mm 0 W/m2
02:38 11.6 °C 9.9 °C 992.8 hPa ENE 6.4 km/h 11.3 km/h 90% 0 mm 0 W/m2
02:44 11.4 °C 9.9 °C 992.4 hPa NE 8 km/h 11.3 km/h 90% 0 mm 0 W/m2
02:50 11.4 °C 9.8 °C 992.4 hPa ENE 8 km/h 14.5 km/h 90% 0 mm 0 W/m2
02:56 11.3 °C 9.7 °C 992.1 hPa NE 8 km/h 14.5 km/h 90% 0 mm 0 W/m2
03:02 11.1 °C 9.7 °C 991.8 hPa East 8 km/h 11.3 km/h 91% 0 mm 0 W/m2
03:08 11 °C 9.6 °C 991.8 hPa NE 6.4 km/h 12.9 km/h 91% 0 mm 0 W/m2
03:14 10.9 °C 9.6 °C 991.4 hPa ESE 6.4 km/h 8 km/h 91% 0 mm 0 W/m2
03:20 10.9 °C 9.7 °C 991.4 hPa ENE 6.4 km/h 6.4 km/h 92% 0 mm 0 W/m2
03:26 10.9 °C 9.7 °C 991.4 hPa NE 6.4 km/h 6.4 km/h 92% 0 mm 0 W/m2
03:32 10.9 °C 9.7 °C 991.4 hPa East 4.8 km/h 4.8 km/h 92% 0 mm 0 W/m2
03:38 10.9 °C 9.7 °C 991.4 hPa East 3.2 km/h 4.8 km/h 92% 0 mm 0 W/m2
03:44 10.9 °C 9.7 °C 991.4 hPa ESE 3.2 km/h 3.2 km/h 92% 0 mm 0 W/m2
03:50 10.9 °C 9.7 °C 991.4 hPa ENE 1.6 km/h 1.6 km/h 92% 0 mm 0 W/m2
03:56 11 °C 9.7 °C 991.4 hPa East 3.2 km/h 3.2 km/h 92% 0 mm 0 W/m2
04:02 11 °C 9.7 °C 991.1 hPa East 3.2 km/h 8 km/h 92% 0 mm 0 W/m2
04:08 11 °C 9.7 °C 991.1 hPa ENE 3.2 km/h 8 km/h 92% 0 mm 0 W/m2
04:14 11 °C 9.9 °C 991.1 hPa ESE 3.2 km/h 6.4 km/h 93% 0 mm 0 W/m2
04:20 11 °C 9.9 °C 991.4 hPa ENE 4.8 km/h 4.8 km/h 93% 0 mm 0 W/m2
04:26 11 °C 9.7 °C 991.1 hPa East 4.8 km/h 9.7 km/h 92% 0 mm 0 W/m2
04:32 11 °C 9.7 °C 991.1 hPa East 6.4 km/h 6.4 km/h 92% 0 mm 0 W/m2
04:38 10.9 °C 9.7 °C 991.1 hPa NE 4.8 km/h 6.4 km/h 92% 0 mm 0 W/m2
04:44 10.9 °C 9.7 °C 991.1 hPa ENE 4.8 km/h 6.4 km/h 92% 0 mm 0 W/m2
04:50 10.9 °C 9.7 °C 991.1 hPa ENE 3.2 km/h 3.2 km/h 92% 0 mm 0 W/m2
04:56 10.9 °C 9.7 °C 990.7 hPa NNW 3.2 km/h 6.4 km/h 92% 0 mm 0 W/m2
05:02 10.9 °C 9.7 °C 990.7 hPa NE 4.8 km/h 4.8 km/h 92% 0 mm 0 W/m2
05:08 10.9 °C 9.7 °C 990.7 hPa ENE 3.2 km/h 4.8 km/h 92% 0 mm 0 W/m2
05:14 11 °C 9.7 °C 990.4 hPa ENE 4.8 km/h 6.4 km/h 92% 0 mm 0 W/m2
05:20 11.1 °C 9.8 °C 990.4 hPa ENE 4.8 km/h 6.4 km/h 92% 0 mm 0 W/m2
05:26 11.1 °C 9.8 °C 990.4 hPa SSW 3.2 km/h 6.4 km/h 92% 0 mm 0 W/m2
05:32 11.1 °C 9.8 °C 990.4 hPa SE 3.2 km/h 3.2 km/h 92% 0 mm 0 W/m2
05:38 11.2 °C 9.9 °C 990.1 hPa ENE 4.8 km/h 8 km/h 92% 0 mm 0 W/m2
05:44 11.2 °C 9.9 °C 990.1 hPa ENE 4.8 km/h 4.8 km/h 92% 0 mm 0 W/m2
05:52 11.2 °C 9.9 °C 990.1 hPa East 4.8 km/h 8 km/h 92% 2.79 mm 0 W/m2
05:58 11.3 °C 10 °C 990.1 hPa ENE 6.4 km/h 11.3 km/h 92% 1.78 mm 0 W/m2
06:04 11.3 °C 10 °C 990.1 hPa East 6.4 km/h 8 km/h 92% 1.02 mm 0 W/m2
06:10 11.3 °C 10.2 °C 990.1 hPa East 6.4 km/h 6.4 km/h 93% 0 mm 0 W/m2
06:16 11.3 °C 10.2 °C 990.1 hPa East 8 km/h 11.3 km/h 93% 0 mm 5 W/m2
06:22 11.4 °C 10.3 °C 990.1 hPa ESE 6.4 km/h 6.4 km/h 93% 0 mm 7 W/m2
06:28 11.4 °C 10.3 °C 990.1 hPa East 4.8 km/h 8 km/h 93% 0 mm 9 W/m2
06:34 11.4 °C 10.3 °C 989.7 hPa East 4.8 km/h 4.8 km/h 93% 0 mm 9 W/m2
06:40 11.4 °C 10.3 °C 989.7 hPa ENE 4.8 km/h 4.8 km/h 93% 0 mm 5 W/m2
06:46 11.4 °C 10.3 °C 989.7 hPa ENE 4.8 km/h 12.9 km/h 93% 0 mm 7 W/m2
06:52 11.4 °C 10.3 °C 989.7 hPa East 4.8 km/h 8 km/h 93% 0 mm 5 W/m2
06:58 11.4 °C 10.3 °C 990.7 hPa SW 3.2 km/h 8 km/h 93% 0 mm 0 W/m2
07:04 11.4 °C 10.3 °C 990.1 hPa North 4.8 km/h 9.7 km/h 93% 8.89 mm 33 W/m2
07:10 11.5 °C 10.4 °C 990.7 hPa SSE 4.8 km/h 4.8 km/h 93% 2.54 mm 60 W/m2
07:16 11.6 °C 10.4 °C 990.7 hPa East 3.2 km/h 8 km/h 93% 3.56 mm 49 W/m2
07:22 11.6 °C 10.4 °C 990.7 hPa ENE 1.6 km/h 3.2 km/h 93% 1.52 mm 25 W/m2
07:28 11.5 °C 10.4 °C 990.4 hPa East 1.6 km/h 3.2 km/h 93% 1.02 mm 16 W/m2
07:34 11.6 °C 10.4 °C 990.7 hPa Calm   1.6 km/h 93% 1.02 mm 14 W/m2
07:40 11.6 °C 10.4 °C 990.7 hPa Calm     93% 1.02 mm 9 W/m2
07:46 11.5 °C 10.4 °C 990.7 hPa Calm     93% 1.27 mm 12 W/m2
07:52 11.5 °C 10.4 °C 990.4 hPa Calm   3.2 km/h 93% 1.78 mm 25 W/m2
07:58 11.5 °C 10.4 °C 990.4 hPa NE 1.6 km/h 4.8 km/h 93% 2.29 mm 39 W/m2
08:04 11.6 °C 10.5 °C 990.4 hPa NE 1.6 km/h 1.6 km/h 93% 1.78 mm 35 W/m2
08:10 11.7 °C 10.6 °C 990.1 hPa East 3.2 km/h 8 km/h 93% 1.02 mm 40 W/m2
08:16 11.8 °C 10.7 °C 990.1 hPa ESE 3.2 km/h 8 km/h 93% 0 mm 39 W/m2
08:22 11.8 °C 10.9 °C 990.1 hPa ESE 3.2 km/h 3.2 km/h 94% 0 mm 32 W/m2
08:28 11.9 °C 10.9 °C 990.1 hPa SE 1.6 km/h 3.2 km/h 94% 2.03 mm 46 W/m2
08:34 11.9 °C 10.9 °C 990.1 hPa ESE 1.6 km/h 1.6 km/h 94% 2.03 mm 46 W/m2
08:40 11.9 °C 11 °C 990.1 hPa ESE 1.6 km/h 1.6 km/h 94% 1.52 mm 56 W/m2
08:46 12 °C 11.1 °C 990.1 hPa Calm   1.6 km/h 94% 1.02 mm 76 W/m2
08:52 12.1 °C 11.1 °C 990.1 hPa Calm     94% 1.02 mm 67 W/m2
08:58 12.2 °C 11.2 °C 990.4 hPa Calm   1.6 km/h 94% 1.02 mm 56 W/m2
09:06 12.2 °C 11.3 °C 990.7 hPa Calm     94% 0 mm 56 W/m2
09:12 12.3 °C 11.3 °C 990.7 hPa ESE 1.6 km/h 1.6 km/h 94% 0 mm 58 W/m2
09:18 12.3 °C 11.4 °C 990.7 hPa Calm   1.6 km/h 94% 0 mm 104 W/m2
09:24 12.4 °C 11.4 °C 990.7 hPa Calm   3.2 km/h 94% 1.52 mm 69 W/m2
09:30 12.5 °C 11.6 °C 990.7 hPa ESE 1.6 km/h 1.6 km/h 94% 1.52 mm 104 W/m2
09:36 12.6 °C 11.7 °C 990.7 hPa Calm   1.6 km/h 94% 1.02 mm 86 W/m2
09:42 12.7 °C 11.7 °C 990.4 hPa Calm   1.6 km/h 94% 0 mm 58 W/m2
09:48 12.6 °C 11.6 °C 990.4 hPa Calm   4.8 km/h 94% 0 mm 79 W/m2
09:54 12.4 °C 11.4 °C 990.1 hPa West 1.6 km/h 6.4 km/h 94% 0 mm 67 W/m2
10:00 11.5 °C 10.4 °C 990.4 hPa SW 3.2 km/h 6.4 km/h 93% 0 mm 54 W/m2
10:06 10.8 °C 9.7 °C 990.7 hPa SW 3.2 km/h 6.4 km/h 93% 0 mm 49 W/m2
10:12 10.4 °C 9.3 °C 990.7 hPa WSW 4.8 km/h 12.9 km/h 93% 0 mm 49 W/m2
10:18 10.4 °C 9.3 °C 990.7 hPa WSW 1.6 km/h 12.9 km/h 93% 0 mm 58 W/m2
10:24 10.4 °C 9.3 °C 990.7 hPa Calm   1.6 km/h 93% 0 mm 81 W/m2
10:30 10.3 °C 9.2 °C 990.7 hPa SW 3.2 km/h 6.4 km/h 93% 0 mm 77 W/m2
10:36 10.1 °C 9.1 °C 990.7 hPa WSW 4.8 km/h 8 km/h 93% 0 mm 81 W/m2
10:42 10.1 °C 9.1 °C 990.7 hPa SW 1.6 km/h 3.2 km/h 93% 0 mm 69 W/m2
10:48 9.9 °C 8.9 °C 991.1 hPa SSW 3.2 km/h 8 km/h 93% 0 mm 83 W/m2
10:54 9.9 °C 8.8 °C 991.8 hPa SSW 4.8 km/h 9.7 km/h 93% 0 mm 42 W/m2
11:00 9.8 °C 8.8 °C 991.4 hPa WSW 4.8 km/h 4.8 km/h 93% 0 mm 109 W/m2
11:06 10 °C 8.9 °C 991.1 hPa WNW 3.2 km/h 4.8 km/h 93% 0 mm 186 W/m2
11:12 10.1 °C 9.1 °C 991.1 hPa West 1.6 km/h 1.6 km/h 94% 1.78 mm 179 W/m2
11:18 10.1 °C 9.2 °C 991.4 hPa SW 1.6 km/h 4.8 km/h 94% 1.27 mm 209 W/m2
11:24 10.2 °C 9.3 °C 991.4 hPa SW 1.6 km/h 3.2 km/h 94% 0 mm 102 W/m2
11:30 10.3 °C 9.2 °C 991.1 hPa NW 3.2 km/h 3.2 km/h 93% 0 mm 355 W/m2
11:36 10.6 °C 9.6 °C 991.1 hPa West 1.6 km/h 9.7 km/h 94% 0 mm 181 W/m2
11:42 10.5 °C 9.6 °C 990.7 hPa WNW 1.6 km/h 3.2 km/h 94% 0 mm 243 W/m2
11:48 10.6 °C 9.4 °C 990.7 hPa NW 1.6 km/h 3.2 km/h 93% 0 mm 269 W/m2
11:54 10.6 °C 9.4 °C 990.7 hPa NW 1.6 km/h 1.6 km/h 93% 0 mm 244 W/m2
12:00 10.6 °C 9.5 °C 990.7 hPa SW 1.6 km/h 1.6 km/h 93% 0 mm 163 W/m2
12:06 10.7 °C 9.6 °C 990.7 hPa SW 1.6 km/h 1.6 km/h 93% 0 mm 148 W/m2
12:12 10.7 °C 9.6 °C 990.7 hPa SW 1.6 km/h 4.8 km/h 93% 0 mm 69 W/m2
12:18 10.7 °C 9.6 °C 990.7 hPa SW 3.2 km/h 3.2 km/h 93% 0 mm 109 W/m2
12:24 10.7 °C 9.6 °C 990.7 hPa West 1.6 km/h 3.2 km/h 93% 0 mm 114 W/m2
12:30 10.7 °C 9.4 °C 990.7 hPa WNW 1.6 km/h 3.2 km/h 92% 0 mm 102 W/m2
12:36 10.6 °C 9.4 °C 990.1 hPa WNW 1.6 km/h 1.6 km/h 92% 0 mm 179 W/m2
12:42 10.8 °C 9.6 °C 990.1 hPa WNW 1.6 km/h 1.6 km/h 92% 0 mm 265 W/m2
12:48 11.1 °C 10 °C 990.1 hPa NNW 1.6 km/h 1.6 km/h 93% 0 mm 336 W/m2
12:54 11.1 °C 9.8 °C 990.1 hPa NNW 1.6 km/h 3.2 km/h 92% 0 mm 104 W/m2
13:00 10.8 °C 9.6 °C 990.4 hPa NW 1.6 km/h 1.6 km/h 92% 0 mm 105 W/m2
13:06 10.8 °C 9.4 °C 990.4 hPa NW 1.6 km/h 3.2 km/h 91% 0 mm 95 W/m2
13:12 10.7 °C 9.3 °C 990.1 hPa West 1.6 km/h 3.2 km/h 91% 0 mm 111 W/m2
13:18 10.7 °C 9.3 °C 990.1 hPa WSW 1.6 km/h 3.2 km/h 91% 0 mm 76 W/m2
13:24 10.7 °C 9.3 °C 990.4 hPa West 1.6 km/h 3.2 km/h 91% 0 mm 70 W/m2
13:30 10.6 °C 9.2 °C 990.4 hPa Calm     91% 0 mm 33 W/m2
13:36 10.6 °C 9.2 °C 990.4 hPa Calm     91% 21.59 mm 51 W/m2
13:42 10.5 °C 8.9 °C 990.4 hPa Calm     90% 11.68 mm 70 W/m2
13:48 10.4 °C 9.1 °C 990.4 hPa Calm     91% 9.14 mm 142 W/m2
13:54 10.6 °C 9.2 °C 990.1 hPa NW 1.6 km/h 3.2 km/h 91% 2.03 mm 95 W/m2
14:00 10.6 °C 9.3 °C 990.4 hPa NW 1.6 km/h 1.6 km/h 92% 1.27 mm 95 W/m2
14:06 10.5 °C 9.3 °C 990.4 hPa Calm   1.6 km/h 92% 3.81 mm 58 W/m2
14:12 10.4 °C 9.2 °C 990.7 hPa Calm     92% 7.37 mm 93 W/m2
14:18 10.3 °C 9.1 °C 990.7 hPa SW 1.6 km/h 6.4 km/h 92% 7.62 mm 30 W/m2
14:24 10.3 °C 9.1 °C 991.1 hPa South 3.2 km/h 3.2 km/h 92% 2.03 mm 35 W/m2
14:30 10.3 °C 9.1 °C 991.1 hPa WSW 1.6 km/h 3.2 km/h 92% 1.78 mm 49 W/m2
14:36 10.2 °C 9 °C 991.1 hPa West 3.2 km/h 3.2 km/h 92% 1.52 mm 107 W/m2
14:42 10.3 °C 9.3 °C 991.1 hPa West 1.6 km/h 1.6 km/h 93% 4.06 mm 127 W/m2
14:48 10.4 °C 9.3 °C 990.7 hPa Calm   3.2 km/h 93% 2.79 mm 121 W/m2
14:54 10.4 °C 9.3 °C 991.1 hPa West 1.6 km/h 1.6 km/h 93% 1.52 mm 155 W/m2
15:00 10.4 °C 9.3 °C 991.1 hPa West 1.6 km/h 1.6 km/h 93% 1.27 mm 86 W/m2
15:06 10.5 °C 9.4 °C 991.1 hPa Calm   1.6 km/h 93% 1.27 mm 76 W/m2
15:12 10.3 °C 9.2 °C 991.1 hPa North 1.6 km/h 9.7 km/h 93% 1.02 mm 79 W/m2
15:18 10.1 °C 9 °C 991.1 hPa NW 3.2 km/h 9.7 km/h 93% 0 mm 58 W/m2
15:24 9.9 °C 8.8 °C 991.1 hPa NNW 3.2 km/h 8 km/h 93% 0 mm 95 W/m2
15:30 9.8 °C 8.6 °C 991.4 hPa North 3.2 km/h 3.2 km/h 92% 0 mm 44 W/m2
15:36 9.9 °C 8.8 °C 991.8 hPa North 1.6 km/h 3.2 km/h 93% 0 mm 18 W/m2
15:42 9.8 °C 8.7 °C 991.8 hPa NNW 1.6 km/h 1.6 km/h 93% 0 mm 21 W/m2
15:48 9.6 °C 8.6 °C 991.8 hPa NNW 1.6 km/h 3.2 km/h 93% 0 mm 21 W/m2
15:54 9.6 °C 8.5 °C 991.8 hPa NNW 1.6 km/h 3.2 km/h 93% 0 mm 60 W/m2
16:00 9.6 °C 8.6 °C 991.8 hPa West 1.6 km/h 1.6 km/h 93% 4.06 mm 86 W/m2
16:02 9.6 °C 8.5 °C 991.8 hPa Calm   1.6 km/h 93% 4.06 mm 63 W/m2
16:08 9.5 °C 8.3 °C 991.8 hPa Calm   3.2 km/h 92% 1.52 mm 53 W/m2
16:14 9.6 °C 8.3 °C 991.8 hPa SW 1.6 km/h 3.2 km/h 92% 1.02 mm 53 W/m2
16:20 9.4 °C 8.2 °C 992.1 hPa WSW 3.2 km/h 6.4 km/h 92% 0 mm 42 W/m2
16:26 9.4 °C 8.2 °C 992.1 hPa SW 3.2 km/h 6.4 km/h 92% 0 mm 37 W/m2
16:32 9.3 °C 8.1 °C 992.4 hPa WSW 3.2 km/h 3.2 km/h 92% 0 mm 26 W/m2
16:38 9.2 °C 7.9 °C 992.8 hPa WSW 4.8 km/h 9.7 km/h 92% 0 mm 37 W/m2
16:44 9.1 °C 7.8 °C 992.8 hPa West 4.8 km/h 6.4 km/h 92% 0 mm 40 W/m2
16:50 9.1 °C 7.8 °C 992.4 hPa WSW 3.2 km/h 3.2 km/h 92% 0 mm 84 W/m2
16:56 8.9 °C 7.7 °C 992.4 hPa West 3.2 km/h 4.8 km/h 92% 0 mm 76 W/m2
17:02 8.8 °C 7.6 °C 992.8 hPa SW 3.2 km/h 3.2 km/h 92% 0 mm 69 W/m2
17:08 8.8 °C 7.6 °C 992.8 hPa West 1.6 km/h 3.2 km/h 92% 0 mm 54 W/m2
17:14 8.6 °C 7.4 °C 992.8 hPa WNW 1.6 km/h 3.2 km/h 92% 0 mm 79 W/m2
17:20 8.4 °C 7.1 °C 992.8 hPa WSW 3.2 km/h 6.4 km/h 91% 0 mm 70 W/m2
17:26 8.4 °C 7 °C 993.1 hPa SW 3.2 km/h 6.4 km/h 91% 0 mm 47 W/m2
17:32 8.3 °C 6.9 °C 993.1 hPa WSW 1.6 km/h 4.8 km/h 91% 0 mm 33 W/m2
17:38 8.3 °C 6.9 °C 993.5 hPa WSW 3.2 km/h 6.4 km/h 91% 0 mm 32 W/m2
17:44 8.2 °C 6.8 °C 993.5 hPa West 4.8 km/h 6.4 km/h 91% 0 mm 39 W/m2
17:50 8.2 °C 6.8 °C 993.5 hPa West 6.4 km/h 6.4 km/h 91% 0 mm 56 W/m2
17:56 8.1 °C 6.7 °C 993.5 hPa WSW 4.8 km/h 14.5 km/h 91% 0 mm 35 W/m2
18:02 8.1 °C 6.5 °C 993.8 hPa WSW 4.8 km/h 12.9 km/h 90% 0 mm 25 W/m2
18:08 8.1 °C 6.5 °C 993.8 hPa WSW 3.2 km/h 12.9 km/h 90% 0 mm 26 W/m2
18:14 8 °C 6.4 °C 993.8 hPa West 3.2 km/h 3.2 km/h 90% 0 mm 21 W/m2
18:20 8 °C 6.4 °C 993.8 hPa West 3.2 km/h 4.8 km/h 90% 0 mm 21 W/m2
18:26 8 °C 6.4 °C 993.8 hPa West 1.6 km/h 4.8 km/h 90% 0 mm 28 W/m2
18:32 8.1 °C 6.7 °C 993.8 hPa Calm   1.6 km/h 91% 0 mm 28 W/m2
18:38 8.1 °C 6.5 °C 993.8 hPa Calm   4.8 km/h 90% 0 mm 32 W/m2
18:44 8.1 °C 6.7 °C 993.8 hPa West 1.6 km/h 3.2 km/h 91% 0 mm 25 W/m2
18:50 8.1 °C 6.7 °C 993.8 hPa West 1.6 km/h 1.6 km/h 91% 0 mm 18 W/m2
18:56 8.1 °C 6.7 °C 993.8 hPa West 1.6 km/h 3.2 km/h 91% 0 mm 14 W/m2
19:02 7.9 °C 6.6 °C 993.8 hPa SW 1.6 km/h 1.6 km/h 91% 0 mm 9 W/m2
19:08 7.8 °C 6.4 °C 993.8 hPa WSW 1.6 km/h 4.8 km/h 91% 0 mm 14 W/m2
19:14 7.8 °C 6.4 °C 993.8 hPa WSW 1.6 km/h 8 km/h 91% 0 mm 18 W/m2
19:20 7.7 °C 6.3 °C 993.8 hPa WSW 1.6 km/h 1.6 km/h 91% 0 mm 23 W/m2
19:26 7.8 °C 6.6 °C 993.8 hPa SW 1.6 km/h 4.8 km/h 92% 0 mm 19 W/m2
19:32 7.8 °C 6.4 °C 993.8 hPa SW 3.2 km/h 3.2 km/h 91% 0 mm 18 W/m2
19:38 7.8 °C 6.4 °C 993.8 hPa West 3.2 km/h 9.7 km/h 91% 0 mm 14 W/m2
19:44 7.7 °C 6.3 °C 994.1 hPa West 3.2 km/h 6.4 km/h 91% 0 mm 12 W/m2
19:50 7.8 °C 6.4 °C 994.1 hPa West 1.6 km/h 1.6 km/h 91% 0 mm 7 W/m2
19:56 7.7 °C 6.3 °C 994.1 hPa SW 1.6 km/h 4.8 km/h 91% 0 mm 5 W/m2
20:02 7.7 °C 6.3 °C 994.5 hPa WSW 3.2 km/h 8 km/h 91% 0 mm 0 W/m2
20:08 7.7 °C 6.3 °C 994.5 hPa West 3.2 km/h 8 km/h 91% 0 mm 0 W/m2
20:14 7.7 °C 6.2 °C 994.5 hPa SW 3.2 km/h 3.2 km/h 90% 0 mm 0 W/m2
20:20 7.7 °C 6.1 °C 994.5 hPa West 3.2 km/h 3.2 km/h 90% 0 mm 0 W/m2
20:26 7.7 °C 6.3 °C 994.5 hPa West 1.6 km/h 3.2 km/h 91% 0 mm 0 W/m2
20:32 7.7 °C 6.3 °C 994.5 hPa West 1.6 km/h 3.2 km/h 91% 0 mm 0 W/m2
20:38 7.7 °C 6.3 °C 994.5 hPa Calm   3.2 km/h 91% 0 mm 0 W/m2
20:44 7.7 °C 6.3 °C 994.8 hPa Calm   1.6 km/h 91% 0 mm 0 W/m2
20:50 7.7 °C 6.3 °C 994.8 hPa Calm     91% 0 mm 0 W/m2
20:56 7.7 °C 6.3 °C 994.8 hPa Calm   3.2 km/h 91% 0 mm 0 W/m2
21:02 7.7 °C 6.3 °C 994.8 hPa SW 1.6 km/h 3.2 km/h 91% 0 mm 0 W/m2
21:08 7.7 °C 6.3 °C 994.8 hPa WSW 1.6 km/h 3.2 km/h 91% 0 mm 0 W/m2
21:14 7.7 °C 6.3 °C 994.8 hPa SW 1.6 km/h 4.8 km/h 91% 0 mm 0 W/m2
21:20 7.7 °C 6.3 °C 994.8 hPa SW 3.2 km/h 3.2 km/h 91% 0 mm 0 W/m2
21:26 7.7 °C 6.3 °C 994.8 hPa SW 1.6 km/h 3.2 km/h 91% 0 mm 0 W/m2
21:32 7.7 °C 6.3 °C 994.8 hPa WSW 1.6 km/h 1.6 km/h 91% 0 mm 0 W/m2
21:38 7.7 °C 6.3 °C 994.8 hPa WSW 1.6 km/h 4.8 km/h 91% 0 mm 0 W/m2
21:44 7.6 °C 6.2 °C 994.8 hPa WSW 3.2 km/h 3.2 km/h 91% 0 mm 0 W/m2
21:50 7.6 °C 6.2 °C 994.8 hPa SW 1.6 km/h 1.6 km/h 91% 0 mm 0 W/m2
21:56 7.6 °C 6.2 °C 994.8 hPa WSW 1.6 km/h 4.8 km/h 91% 0 mm 0 W/m2
22:02 7.6 °C 6.2 °C 994.8 hPa WSW 1.6 km/h 3.2 km/h 91% 0 mm 0 W/m2
22:08 7.6 °C 6.2 °C 994.8 hPa SW 3.2 km/h 6.4 km/h 91% 0 mm 0 W/m2
22:14 7.6 °C 6.2 °C 994.8 hPa WSW 4.8 km/h 6.4 km/h 91% 0 mm 0 W/m2
22:20 7.5 °C 6.1 °C 994.8 hPa WSW 3.2 km/h 3.2 km/h 91% 0 mm 0 W/m2
22:26 7.5 °C 6.1 °C 995.1 hPa WSW 1.6 km/h 4.8 km/h 91% 0 mm 0 W/m2
22:32 7.5 °C 6.1 °C 995.1 hPa SSW 3.2 km/h 3.2 km/h 91% 0 mm 0 W/m2
22:38 7.5 °C 6.1 °C 995.1 hPa WSW 1.6 km/h 4.8 km/h 91% 0 mm 0 W/m2
22:44 7.5 °C 6.1 °C 995.1 hPa West 3.2 km/h 4.8 km/h 91% 0 mm 0 W/m2
22:50 7.5 °C 5.9 °C 995.1 hPa WSW 3.2 km/h 3.2 km/h 90% 0 mm 0 W/m2
22:56 7.5 °C 5.9 °C 995.1 hPa West 1.6 km/h 3.2 km/h 90% 0 mm 0 W/m2
23:02 7.5 °C 5.9 °C 995.1 hPa WSW 1.6 km/h 1.6 km/h 90% 0 mm 0 W/m2
23:08 7.4 °C 5.9 °C 995.1 hPa SSW 1.6 km/h 4.8 km/h 90% 0 mm 0 W/m2
23:14 7.4 °C 5.9 °C 995.1 hPa West 3.2 km/h 3.2 km/h 90% 0 mm 0 W/m2
23:20 7.3 °C 5.8 °C 995.1 hPa West 4.8 km/h 6.4 km/h 90% 0 mm 0 W/m2
23:26 7.3 °C 5.7 °C 995.1 hPa SSW 4.8 km/h 6.4 km/h 90% 0 mm 0 W/m2
23:32 7.2 °C 5.8 °C 995.1 hPa West 4.8 km/h 6.4 km/h 91% 0 mm 0 W/m2
23:38 7.1 °C 5.7 °C 995.1 hPa WSW 4.8 km/h 11.3 km/h 91% 0 mm 0 W/m2
23:44 7.1 °C 5.7 °C 995.1 hPa SW 3.2 km/h 8 km/h 91% 0 mm 0 W/m2
23:50 7.1 °C 5.7 °C 995.1 hPa SW 4.8 km/h 4.8 km/h 91% 0 mm 0 W/m2
23:56 7.1 °C 5.7 °C 995.1 hPa West 1.6 km/h 8 km/h 91% 0 mm 0 W/m2
Country Meadow, Clay, NY, USA
Compliments of Weather Underground - 2 mb